STARLINK-33833, 63498

Orbit data source: Space-Track

STARLINK-33833, 63498 is a payload satellite owned by SpaceX/Seattle (US) in LEO that was launched on Mon, 07 Apr 2025 UTC via an FALCON 9 launch vehicle from the Air Force Western Test Range (AFWTR). Payload-class satellites include a variety of spacecraft equipped with specific instruments for various scientific and technological missions. These include communications satellites like Starlink; space stations such as the ISS; scientific satellites like the Hubble; Earth observation satellites from companies like Planet Labs, Umbra, and HawkEye 360; GPS; miniature CubeSats for education and research; and military/defense satellites.

Loading next visibility...
Identifier
63498, 2025-071F
Orbit
LEO
Country
Flag of USUS
Related business
Manufacturer
SpaceX/Seattle
Mission
Operational Commercial Communications
Bus & Motor
STARLINK V2MO, Unknown motor
Mass
575 kg wet, ~530 kg dry
Launch date (UTC)
2025-04-07 (1 year ago)
Launch vehicle
FALCON 9
Launch site
Air Force Western Test Range (AFWTR)
Object type
Payload
Rocket body
Debris
Shape & HBR
Box + 2 Pan, 17.7 m
Radar Cross Section
36.964 m², Large (>1 m²)

Expand to show TLE details & history
Last TLE update: 6 hours ago

TLE from 6 hours ago
0 STARLINK-33833
1 63498U 25071F   26174.90901932  .00022156  00000-0  72306-3 0  9995
2 63498  53.1605   6.4681 0000529  86.1406 273.9656 15.31724195 69032
Epoch: 2026-06-23T21:48Z
TLE epoch observation values (Epoch: 2026-06-23T21:48:59.269Z)
Latitude
-0°
Longitude
127.14732°
Altitude
471.543 km
Speed
7.632 km/s
True Right ascension
00h 25m 52s
True Declination
0° 00' 00"
Sunlit
Object was in daylight at epoch
Visualization orbit readout
Latitude
Unknown
Longitude
Unknown
Altitude
Unknown
Speed
Unknown
Apparent Right ascension
Unknown
Apparent Declination
Unknown
Sunlit
N/A
Visualization observer readout
Local Sidereal Time
15:02:15
Azimuth
Unknown
Elevation
Unknown
Doppler factor
Unknown
Orbital elements
Apogee altitude
471.287 km
Perigee altitude
470.562 km
Semi-major axis
6,849.061 km
Eccentricity
0.00005
Inclination
53.1605°
RAAN
6.4681°
Arg. of periapsis
86.1406°
True anomaly
273.95955°
Mean anomaly
273.9656°
Eccentric anomaly
273.96258°
Mean motion
3.8291 °/min
Orbital period
94.02 mins
BSTAR
0.00072306
Loading maneuver chart data...
Computing Atmospheric mass density...
Loading historical data...
Loading historical data...
Loading historical data...
Loading historical data...
Loading historical data...
Loading historical data...
Loading historical data...

Documentation

Showing up to 5 results
|